一网星座-0543星 (ONEWEB-0543)

导读

ONEWEB-0543是英国OneWeb公司低轨卫星互联网星座的组成卫星,于2023年1月10日发射入轨。OneWeb星座旨在为全球尤其是偏远基础设施落后区域提供高速宽带接入服务,该卫星运行于近地轨道,依托Ku波段通信技术,助力实现全球覆盖的卫星互联网布局,近年还参与验证了星地一体化5G无缝切换技术,推动全球互联发展。

Basic Information
目录编号:
55143
目录名称:
ONEWEB-0543
国际标识:
2023-004D
轨道中心:
EARTH
卫星名称:
一网星座-0543星
卫星全名:
一网星座-0543星 (ONEWEB-0543)
卫星状态:
在轨 (已飞行1295 天)
发射日期:
2023-01-10 UTC
国别 :
英国 (GB)
星等 :
--
Orbit Information
数据来源 国际轨道数据 AOE轨道数据
星历时间 2026-07-27T04:20:04+0800
1天前
查看轨道信息
2026-07-25T05:00:00+0800
3天前
查看轨道信息
半长轴 7567.877km 7567.884km
偏心率 0.0002002 0.0001677
轨道倾角 87.920° 87.919°
近地点辐角 105.319° 85.624°
升交点赤经 327.583° 327.976°
平近点角 254.816° 276.940°
近地点 1188.224km 1188.477km
远地点 1191.256km 1191.017km
周期 109.200分钟 109.200分钟
每日圈数 13.18687 13.186851
Detailed Information
平衡模式:
三轴稳定
覆盖范围:
全球
运营商:
一网卫星公司
运营商所在国:
英国
制造商(研发单位):
一网卫星公司
制造商所在国:
英国
使用方式:
暂无
Satellite Introduction
OneWeb卫星网络由648颗重约125公斤的微型卫星组成,运行在1200公里的轨道上。 每颗卫星都能够提供至少每秒8千兆位的吞吐量,以使用其高吞吐量的Ku频段有效载荷为家庭和移动平台提供互联网接入。该卫星仍在工作。
2D Orbit Map
3D Orbit Map
Orbit Altitude Analysis Chart
Orbit Inclination Analysis Chart
Orbit Comprehensive Analysis Chart
View Comprehensive Chart